owner,sensor,date,latitude,longitude,vertical_datum,wind_speed,wind_to_direction,wind_speed_of_gust,qcFlag 
WAVCIS,ioos:station:WAVCIS:CSI09:1,2011-06-01T00:00:00Z,29.1015,-89.9782,0.0,2.973,87.0,,'11111222,11111222,99999999' 
WAVCIS,ioos:station:WAVCIS:CSI09:1,2011-06-01T01:00:00Z,29.1015,-89.9782,0.0,3.039,108.0,,'11111222,11111222,99999999' 
WAVCIS,ioos:station:WAVCIS:CSI09:1,2011-06-01T02:00:00Z,29.1015,-89.9782,0.0,2.803,126.0,,'11111222,11111222,99999999' 
WAVCIS,ioos:station:WAVCIS:CSI09:1,2011-06-01T03:00:00Z,29.1015,-89.9782,0.0,2.115,143.0,,'11111222,11111222,99999999' 
WAVCIS,ioos:station:WAVCIS:CSI09:1,2011-06-01T04:00:00Z,29.1015,-89.9782,0.0,1.215,147.0,,'11111222,11111222,99999999' 
WAVCIS,ioos:station:WAVCIS:CSI09:1,2011-06-01T05:00:00Z,29.1015,-89.9782,0.0,1.102,161.0,,'11111222,11111222,99999999' 
WAVCIS,ioos:station:WAVCIS:CSI09:1,2011-06-01T06:00:00Z,29.1015,-89.9782,0.0,2.203,128.0,,'11111222,11111222,99999999' 
WAVCIS,ioos:station:WAVCIS:CSI09:1,2011-06-01T07:00:00Z,29.1015,-89.9782,0.0,0.635,81.0,,'11111222,11111222,99999999' 
WAVCIS,ioos:station:WAVCIS:CSI09:1,2011-06-01T08:00:00Z,29.1015,-89.9782,0.0,0.835,49.0,,'11111222,11111222,99999999' 
WAVCIS,ioos:station:WAVCIS:CSI09:1,2011-06-01T09:00:00Z,29.1015,-89.9782,0.0,0.21,3.0,,'11111222,11111222,99999999' 
WAVCIS,ioos:station:WAVCIS:CSI09:1,2011-06-01T10:00:00Z,29.1015,-89.9782,0.0,0.533,26.0,,'11111222,11111222,99999999' 
WAVCIS,ioos:station:WAVCIS:CSI09:1,2011-06-01T11:00:00Z,29.1015,-89.9782,0.0,2.292,326.0,,'11111222,11111222,99999999' 
WAVCIS,ioos:station:WAVCIS:CSI09:1,2011-06-01T12:00:00Z,29.1015,-89.9782,0.0,6.979,338.0,,'11111222,11111222,99999999' 
WAVCIS,ioos:station:WAVCIS:CSI09:1,2011-06-01T13:00:00Z,29.1015,-89.9782,0.0,6.95,343.0,,'11111222,11111222,99999999' 
WAVCIS,ioos:station:WAVCIS:CSI09:1,2011-06-01T14:00:00Z,29.1015,-89.9782,0.0,6.093,340.0,,'11111222,11111222,99999999' 
WAVCIS,ioos:station:WAVCIS:CSI09:1,2011-06-01T15:00:00Z,29.1015,-89.9782,0.0,4.472,343.0,,'11111222,11111222,99999999' 
WAVCIS,ioos:station:WAVCIS:CSI09:1,2011-06-01T16:00:00Z,29.1015,-89.9782,0.0,4.287,1.0,,'11111222,11111222,99999999' 
WAVCIS,ioos:station:WAVCIS:CSI09:1,2011-06-01T17:00:00Z,29.1015,-89.9782,0.0,3.846,20.0,,'11111222,11111222,99999999' 
WAVCIS,ioos:station:WAVCIS:CSI09:1,2011-06-01T18:00:00Z,29.1015,-89.9782,0.0,3.231,32.0,,'11111222,11111222,99999999' 
WAVCIS,ioos:station:WAVCIS:CSI09:1,2011-06-01T19:00:00Z,29.1015,-89.9782,0.0,1.562,58.0,,'11111222,11111222,99999999' 
WAVCIS,ioos:station:WAVCIS:CSI09:1,2011-06-01T20:00:00Z,29.1015,-89.9782,0.0,1.382,66.0,,'11111222,11111222,99999999' 
WAVCIS,ioos:station:WAVCIS:CSI09:1,2011-06-01T21:00:00Z,29.1015,-89.9782,0.0,0.672,72.0,,'11111222,11111222,99999999' 
WAVCIS,ioos:station:WAVCIS:CSI09:1,2011-06-01T22:00:00Z,29.1015,-89.9782,0.0,0.416,342.0,,'11111222,11111222,99999999' 
WAVCIS,ioos:station:WAVCIS:CSI09:1,2011-06-01T23:00:00Z,29.1015,-89.9782,0.0,0.246,13.0,,'11111222,11111222,99999999' 
WAVCIS,ioos:station:WAVCIS:CSI09:1,2011-06-02T00:00:00Z,29.1015,-89.9782,0.0,1.1,146.0,,'11111222,11111222,99999999' 
WAVCIS,ioos:station:WAVCIS:CSI09:1,2011-06-02T01:00:00Z,29.1015,-89.9782,0.0,1.672,245.0,,'11111222,11111222,99999999' 
WAVCIS,ioos:station:WAVCIS:CSI09:1,2011-06-02T02:00:00Z,29.1015,-89.9782,0.0,4.669,252.0,,'11111222,11111222,99999999' 
WAVCIS,ioos:station:WAVCIS:CSI09:1,2011-06-02T03:00:00Z,29.1015,-89.9782,0.0,4.113,251.0,,'11111222,11111222,99999999' 
WAVCIS,ioos:station:WAVCIS:CSI09:1,2011-06-02T04:00:00Z,29.1015,-89.9782,0.0,4.038,264.0,,'11111222,11111222,99999999' 
WAVCIS,ioos:station:WAVCIS:CSI09:1,2011-06-02T05:00:00Z,29.1015,-89.9782,0.0,6.18,280.0,,'11111222,11111222,99999999' 
WAVCIS,ioos:station:WAVCIS:CSI09:1,2011-06-02T06:00:00Z,29.1015,-89.9782,0.0,7.33,300.0,,'11111222,11111222,99999999' 
WAVCIS,ioos:station:WAVCIS:CSI09:1,2011-06-02T07:00:00Z,29.1015,-89.9782,0.0,8.24,306.0,,'11111222,11111222,99999999' 
WAVCIS,ioos:station:WAVCIS:CSI09:1,2011-06-02T08:00:00Z,29.1015,-89.9782,0.0,8.3,316.0,,'11111222,11111222,99999999' 
WAVCIS,ioos:station:WAVCIS:CSI09:1,2011-06-02T09:00:00Z,29.1015,-89.9782,0.0,9.6,315.0,,'11111222,11111222,99999999' 
WAVCIS,ioos:station:WAVCIS:CSI09:1,2011-06-02T10:00:00Z,29.1015,-89.9782,0.0,6.902,310.0,,'11111222,11111222,99999999' 
WAVCIS,ioos:station:WAVCIS:CSI09:1,2011-06-02T11:00:00Z,29.1015,-89.9782,0.0,5.813,277.0,,'11111222,11111222,99999999' 
WAVCIS,ioos:station:WAVCIS:CSI09:1,2011-06-02T12:00:00Z,29.1015,-89.9782,0.0,5.317,308.0,,'11111222,11111222,99999999' 
WAVCIS,ioos:station:WAVCIS:CSI09:1,2011-06-02T13:00:00Z,29.1015,-89.9782,0.0,7.82,10.0,,'11111222,11111222,99999999' 
WAVCIS,ioos:station:WAVCIS:CSI09:1,2011-06-02T14:00:00Z,29.1015,-89.9782,0.0,7.37,23.0,,'11111222,11111222,99999999' 
WAVCIS,ioos:station:WAVCIS:CSI09:1,2011-06-02T15:00:00Z,29.1015,-89.9782,0.0,5.37,38.0,,'11111222,11111222,99999999' 
WAVCIS,ioos:station:WAVCIS:CSI09:1,2011-06-02T16:00:00Z,29.1015,-89.9782,0.0,5.275,75.0,,'11111222,11111222,99999999' 
WAVCIS,ioos:station:WAVCIS:CSI09:1,2011-06-02T17:00:00Z,29.1015,-89.9782,0.0,8.04,74.0,,'11111222,11111222,99999999' 
WAVCIS,ioos:station:WAVCIS:CSI09:1,2011-06-02T18:00:00Z,29.1015,-89.9782,0.0,7.6,112.0,,'11111222,11111222,99999999' 
WAVCIS,ioos:station:WAVCIS:CSI09:1,2011-06-02T19:00:00Z,29.1015,-89.9782,0.0,7.34,109.0,,'11111222,11111222,99999999' 
WAVCIS,ioos:station:WAVCIS:CSI09:1,2011-06-02T20:00:00Z,29.1015,-89.9782,0.0,6.799,104.0,,'11111222,11111222,99999999' 
WAVCIS,ioos:station:WAVCIS:CSI09:1,2011-06-02T21:00:00Z,29.1015,-89.9782,0.0,6.421,107.0,,'11111222,11111222,99999999' 
WAVCIS,ioos:station:WAVCIS:CSI09:1,2011-06-02T22:00:00Z,29.1015,-89.9782,0.0,5.856,94.0,,'11111222,11111222,99999999' 
WAVCIS,ioos:station:WAVCIS:CSI09:1,2011-06-02T23:00:00Z,29.1015,-89.9782,0.0,6.151,97.0,,'11111222,11111222,99999999' 
WAVCIS,ioos:station:WAVCIS:CSI09:1,2011-06-03T00:00:00Z,29.1015,-89.9782,0.0,6.043,98.0,,'11111222,11111222,99999999' 
WAVCIS,ioos:station:WAVCIS:CSI09:1,2011-06-03T01:00:00Z,29.1015,-89.9782,0.0,6.964,118.0,,'11111222,11111222,99999999' 
WAVCIS,ioos:station:WAVCIS:CSI09:1,2011-06-03T02:00:00Z,29.1015,-89.9782,0.0,6.723,121.0,,'11111222,11111222,99999999' 
WAVCIS,ioos:station:WAVCIS:CSI09:1,2011-06-03T03:00:00Z,29.1015,-89.9782,0.0,6.0,132.0,,'11111222,11111222,99999999' 
WAVCIS,ioos:station:WAVCIS:CSI09:1,2011-06-03T04:00:00Z,29.1015,-89.9782,0.0,5.067,129.0,,'11111222,11111222,99999999' 
WAVCIS,ioos:station:WAVCIS:CSI09:1,2011-06-03T05:00:00Z,29.1015,-89.9782,0.0,5.525,138.0,,'11111222,11111222,99999999' 
WAVCIS,ioos:station:WAVCIS:CSI09:1,2011-06-03T06:00:00Z,29.1015,-89.9782,0.0,5.161,139.0,,'11111222,11111222,99999999' 
WAVCIS,ioos:station:WAVCIS:CSI09:1,2011-06-03T07:00:00Z,29.1015,-89.9782,0.0,5.076,139.0,,'11111222,11111222,99999999' 
WAVCIS,ioos:station:WAVCIS:CSI09:1,2011-06-03T08:00:00Z,29.1015,-89.9782,0.0,3.852,149.0,,'11111222,11111222,99999999' 
WAVCIS,ioos:station:WAVCIS:CSI09:1,2011-06-03T09:00:00Z,29.1015,-89.9782,0.0,2.691,142.0,,'11111222,11111222,99999999' 
WAVCIS,ioos:station:WAVCIS:CSI09:1,2011-06-03T10:00:00Z,29.1015,-89.9782,0.0,2.167,127.0,,'11111222,11111222,99999999' 
WAVCIS,ioos:station:WAVCIS:CSI09:1,2011-06-03T11:00:00Z,29.1015,-89.9782,0.0,2.465,133.0,,'11111222,11111222,99999999' 
WAVCIS,ioos:station:WAVCIS:CSI09:1,2011-06-03T12:00:00Z,29.1015,-89.9782,0.0,2.113,103.0,,'11111222,11111222,99999999' 
WAVCIS,ioos:station:WAVCIS:CSI09:1,2011-06-03T13:00:00Z,29.1015,-89.9782,0.0,4.12,73.0,,'11111222,11111222,99999999' 
WAVCIS,ioos:station:WAVCIS:CSI09:1,2011-06-03T14:00:00Z,29.1015,-89.9782,0.0,4.942,68.0,,'11111222,11111222,99999999' 
WAVCIS,ioos:station:WAVCIS:CSI09:1,2011-06-03T15:00:00Z,29.1015,-89.9782,0.0,4.322,74.0,,'11111222,11111222,99999999' 
WAVCIS,ioos:station:WAVCIS:CSI09:1,2011-06-03T16:00:00Z,29.1015,-89.9782,0.0,4.366,80.0,,'11111222,11111222,99999999' 
WAVCIS,ioos:station:WAVCIS:CSI09:1,2011-06-03T17:00:00Z,29.1015,-89.9782,0.0,3.827,74.0,,'11111222,11111222,99999999' 
WAVCIS,ioos:station:WAVCIS:CSI09:1,2011-06-03T18:00:00Z,29.1015,-89.9782,0.0,4.799,80.0,,'11111222,11111222,99999999' 
WAVCIS,ioos:station:WAVCIS:CSI09:1,2011-06-03T19:00:00Z,29.1015,-89.9782,0.0,4.228,90.0,,'11111222,11111222,99999999' 
WAVCIS,ioos:station:WAVCIS:CSI09:1,2011-06-03T20:00:00Z,29.1015,-89.9782,0.0,3.626,97.0,,'11111222,11111222,99999999' 
WAVCIS,ioos:station:WAVCIS:CSI09:1,2011-06-03T21:00:00Z,29.1015,-89.9782,0.0,4.291,91.0,,'11111222,11111222,99999999' 
WAVCIS,ioos:station:WAVCIS:CSI09:1,2011-06-03T22:00:00Z,29.1015,-89.9782,0.0,4.26,94.0,,'11111222,11111222,99999999' 
WAVCIS,ioos:station:WAVCIS:CSI09:1,2011-06-03T23:00:00Z,29.1015,-89.9782,0.0,4.022,111.0,,'11111222,11111222,99999999' 
WAVCIS,ioos:station:WAVCIS:CSI09:1,2011-06-04T00:00:00Z,29.1015,-89.9782,0.0,4.289,118.0,,'11111222,11111222,99999999' 
WAVCIS,ioos:station:WAVCIS:CSI09:1,2011-06-04T01:00:00Z,29.1015,-89.9782,0.0,3.494,135.0,,'11111222,11111222,99999999' 
WAVCIS,ioos:station:WAVCIS:CSI09:1,2011-06-04T02:00:00Z,29.1015,-89.9782,0.0,2.881,151.0,,'11111222,11111222,99999999' 
WAVCIS,ioos:station:WAVCIS:CSI09:1,2011-06-04T03:00:00Z,29.1015,-89.9782,0.0,3.148,155.0,,'11111222,11111222,99999999' 
WAVCIS,ioos:station:WAVCIS:CSI09:1,2011-06-04T04:00:00Z,29.1015,-89.9782,0.0,2.422,165.0,,'11111222,11111222,99999999' 
WAVCIS,ioos:station:WAVCIS:CSI09:1,2011-06-04T05:00:00Z,29.1015,-89.9782,0.0,2.961,173.0,,'11111222,11111222,99999999' 
WAVCIS,ioos:station:WAVCIS:CSI09:1,2011-06-04T06:00:00Z,29.1015,-89.9782,0.0,2.946,169.0,,'11111222,11111222,99999999' 
WAVCIS,ioos:station:WAVCIS:CSI09:1,2011-06-04T07:00:00Z,29.1015,-89.9782,0.0,0.215,134.0,,'11111222,11111222,99999999' 
WAVCIS,ioos:station:WAVCIS:CSI09:1,2011-06-04T08:00:00Z,29.1015,-89.9782,0.0,1.477,17.0,,'11111222,11111222,99999999' 
WAVCIS,ioos:station:WAVCIS:CSI09:1,2011-06-04T09:00:00Z,29.1015,-89.9782,0.0,3.592,8.0,,'11111222,11111222,99999999' 
WAVCIS,ioos:station:WAVCIS:CSI09:1,2011-06-04T10:00:00Z,29.1015,-89.9782,0.0,2.033,2.0,,'11111222,11111222,99999999' 
WAVCIS,ioos:station:WAVCIS:CSI09:1,2011-06-04T11:00:00Z,29.1015,-89.9782,0.0,2.44,345.0,,'11111222,11111222,99999999' 
WAVCIS,ioos:station:WAVCIS:CSI09:1,2011-06-04T12:00:00Z,29.1015,-89.9782,0.0,2.955,15.0,,'11111222,11111222,99999999' 
WAVCIS,ioos:station:WAVCIS:CSI09:1,2011-06-04T13:00:00Z,29.1015,-89.9782,0.0,3.72,27.0,,'11111222,11111222,99999999' 
WAVCIS,ioos:station:WAVCIS:CSI09:1,2011-06-04T14:00:00Z,29.1015,-89.9782,0.0,5.008,16.0,,'11111222,11111222,99999999' 
WAVCIS,ioos:station:WAVCIS:CSI09:1,2011-06-04T15:00:00Z,29.1015,-89.9782,0.0,5.85,15.0,,'11111222,11111222,99999999' 
WAVCIS,ioos:station:WAVCIS:CSI09:1,2011-06-04T16:00:00Z,29.1015,-89.9782,0.0,3.962,32.0,,'11111222,11111222,99999999' 
WAVCIS,ioos:station:WAVCIS:CSI09:1,2011-06-04T17:00:00Z,29.1015,-89.9782,0.0,3.179,49.0,,'11111222,11111222,99999999' 
WAVCIS,ioos:station:WAVCIS:CSI09:1,2011-06-04T18:00:00Z,29.1015,-89.9782,0.0,2.484,44.0,,'11111222,11111222,99999999' 
WAVCIS,ioos:station:WAVCIS:CSI09:1,2011-06-04T19:00:00Z,29.1015,-89.9782,0.0,1.742,62.0,,'11111222,11111222,99999999' 
WAVCIS,ioos:station:WAVCIS:CSI09:1,2011-06-04T20:00:00Z,29.1015,-89.9782,0.0,0.95,124.0,,'11111222,11111222,99999999' 
WAVCIS,ioos:station:WAVCIS:CSI09:1,2011-06-04T21:00:00Z,29.1015,-89.9782,0.0,1.701,158.0,,'11111222,11111222,99999999' 
WAVCIS,ioos:station:WAVCIS:CSI09:1,2011-06-04T22:00:00Z,29.1015,-89.9782,0.0,3.244,169.0,,'11111222,11111222,99999999' 
WAVCIS,ioos:station:WAVCIS:CSI09:1,2011-06-04T23:00:00Z,29.1015,-89.9782,0.0,2.645,203.0,,'11111222,11111222,99999999' 
WAVCIS,ioos:station:WAVCIS:CSI09:1,2011-06-05T00:00:00Z,29.1015,-89.9782,0.0,3.974,224.0,,'11111222,11111222,99999999' 
WAVCIS,ioos:station:WAVCIS:CSI09:1,2011-06-05T01:00:00Z,29.1015,-89.9782,0.0,5.885,229.0,,'11111222,11111222,99999999' 
WAVCIS,ioos:station:WAVCIS:CSI09:1,2011-06-05T02:00:00Z,29.1015,-89.9782,0.0,6.097,234.0,,'11111222,11111222,99999999' 
WAVCIS,ioos:station:WAVCIS:CSI09:1,2011-06-05T03:00:00Z,29.1015,-89.9782,0.0,6.847,264.0,,'11111222,11111222,99999999' 
WAVCIS,ioos:station:WAVCIS:CSI09:1,2011-06-05T04:00:00Z,29.1015,-89.9782,0.0,5.972,259.0,,'11111222,11111222,99999999' 
WAVCIS,ioos:station:WAVCIS:CSI09:1,2011-06-05T05:00:00Z,29.1015,-89.9782,0.0,6.21,274.0,,'11111222,11111222,99999999' 
WAVCIS,ioos:station:WAVCIS:CSI09:1,2011-06-05T06:00:00Z,29.1015,-89.9782,0.0,6.423,276.0,,'11111222,11111222,99999999' 
WAVCIS,ioos:station:WAVCIS:CSI09:1,2011-06-05T07:00:00Z,29.1015,-89.9782,0.0,5.947,265.0,,'11111222,11111222,99999999' 
WAVCIS,ioos:station:WAVCIS:CSI09:1,2011-06-05T08:00:00Z,29.1015,-89.9782,0.0,6.193,269.0,,'11111222,11111222,99999999' 
WAVCIS,ioos:station:WAVCIS:CSI09:1,2011-06-05T09:00:00Z,29.1015,-89.9782,0.0,6.722,282.0,,'11111222,11111222,99999999' 
WAVCIS,ioos:station:WAVCIS:CSI09:1,2011-06-05T10:00:00Z,29.1015,-89.9782,0.0,7.09,286.0,,'11111222,11111222,99999999' 
WAVCIS,ioos:station:WAVCIS:CSI09:1,2011-06-05T11:00:00Z,29.1015,-89.9782,0.0,3.661,302.0,,'11111222,11111222,99999999' 
WAVCIS,ioos:station:WAVCIS:CSI09:1,2011-06-05T12:00:00Z,29.1015,-89.9782,0.0,5.599,291.0,,'11111222,11111222,99999999' 
WAVCIS,ioos:station:WAVCIS:CSI09:1,2011-06-05T13:00:00Z,29.1015,-89.9782,0.0,6.293,309.0,,'11111222,11111222,99999999' 
WAVCIS,ioos:station:WAVCIS:CSI09:1,2011-06-05T14:00:00Z,29.1015,-89.9782,0.0,4.269,353.0,,'11111222,11111222,99999999' 
WAVCIS,ioos:station:WAVCIS:CSI09:1,2011-06-05T15:00:00Z,29.1015,-89.9782,0.0,7.09,46.0,,'11111222,11111222,99999999' 
WAVCIS,ioos:station:WAVCIS:CSI09:1,2011-06-05T16:00:00Z,29.1015,-89.9782,0.0,7.68,354.0,,'11111222,11111222,99999999' 
WAVCIS,ioos:station:WAVCIS:CSI09:1,2011-06-05T17:00:00Z,29.1015,-89.9782,0.0,11.21,358.0,,'11111222,11111222,99999999' 
WAVCIS,ioos:station:WAVCIS:CSI09:1,2011-06-05T18:00:00Z,29.1015,-89.9782,0.0,6.949,337.0,,'11111222,11111222,99999999' 
WAVCIS,ioos:station:WAVCIS:CSI09:1,2011-06-05T19:00:00Z,29.1015,-89.9782,0.0,3.193,164.0,,'11111222,11111222,99999999' 
WAVCIS,ioos:station:WAVCIS:CSI09:1,2011-06-05T20:00:00Z,29.1015,-89.9782,0.0,1.822,48.0,,'11111222,11111222,99999999' 
WAVCIS,ioos:station:WAVCIS:CSI09:1,2011-06-05T21:00:00Z,29.1015,-89.9782,0.0,0.666,27.0,,'11111222,11111222,99999999' 
WAVCIS,ioos:station:WAVCIS:CSI09:1,2011-06-05T22:00:00Z,29.1015,-89.9782,0.0,1.026,292.0,,'11111222,11111222,99999999' 
WAVCIS,ioos:station:WAVCIS:CSI09:1,2011-06-05T23:00:00Z,29.1015,-89.9782,0.0,2.033,143.0,,'11111222,11111222,99999999' 
WAVCIS,ioos:station:WAVCIS:CSI09:1,2011-06-06T00:00:00Z,29.1015,-89.9782,0.0,1.068,212.0,,'11111222,11111222,99999999' 
WAVCIS,ioos:station:WAVCIS:CSI09:1,2011-06-06T01:00:00Z,29.1015,-89.9782,0.0,1.213,70.0,,'11111222,11111222,99999999' 
WAVCIS,ioos:station:WAVCIS:CSI09:1,2011-06-06T02:00:00Z,29.1015,-89.9782,0.0,3.421,136.0,,'11111222,11111222,99999999' 
WAVCIS,ioos:station:WAVCIS:CSI09:1,2011-06-06T03:00:00Z,29.1015,-89.9782,0.0,4.844,174.0,,'11111222,11111222,99999999' 
WAVCIS,ioos:station:WAVCIS:CSI09:1,2011-06-06T04:00:00Z,29.1015,-89.9782,0.0,3.932,174.0,,'11111222,11111222,99999999' 
WAVCIS,ioos:station:WAVCIS:CSI09:1,2011-06-06T05:00:00Z,29.1015,-89.9782,0.0,3.289,187.0,,'11111222,11111222,99999999' 
WAVCIS,ioos:station:WAVCIS:CSI09:1,2011-06-06T06:00:00Z,29.1015,-89.9782,0.0,3.122,206.0,,'11111222,11111222,99999999' 
WAVCIS,ioos:station:WAVCIS:CSI09:1,2011-06-06T07:00:00Z,29.1015,-89.9782,0.0,4.796,233.0,,'11111222,11111222,99999999' 
WAVCIS,ioos:station:WAVCIS:CSI09:1,2011-06-06T08:00:00Z,29.1015,-89.9782,0.0,3.893,231.0,,'11111222,11111222,99999999' 
WAVCIS,ioos:station:WAVCIS:CSI09:1,2011-06-06T09:00:00Z,29.1015,-89.9782,0.0,4.032,232.0,,'11111222,11111222,99999999' 
WAVCIS,ioos:station:WAVCIS:CSI09:1,2011-06-06T10:00:00Z,29.1015,-89.9782,0.0,3.189,233.0,,'11111222,11111222,99999999' 
WAVCIS,ioos:station:WAVCIS:CSI09:1,2011-06-06T11:00:00Z,29.1015,-89.9782,0.0,3.052,247.0,,'11111222,11111222,99999999' 
WAVCIS,ioos:station:WAVCIS:CSI09:1,2011-06-06T12:00:00Z,29.1015,-89.9782,0.0,2.616,236.0,,'11111222,11111222,99999999' 
WAVCIS,ioos:station:WAVCIS:CSI09:1,2011-06-06T13:00:00Z,29.1015,-89.9782,0.0,2.198,240.0,,'11111222,11111222,99999999' 
WAVCIS,ioos:station:WAVCIS:CSI09:1,2011-06-06T14:00:00Z,29.1015,-89.9782,0.0,1.66,179.0,,'11111222,11111222,99999999' 
WAVCIS,ioos:station:WAVCIS:CSI09:1,2011-06-06T15:00:00Z,29.1015,-89.9782,0.0,0.805,258.0,,'11111222,11111222,99999999' 
WAVCIS,ioos:station:WAVCIS:CSI09:1,2011-06-06T16:00:00Z,29.1015,-89.9782,0.0,1.689,243.0,,'11111222,11111222,99999999' 
WAVCIS,ioos:station:WAVCIS:CSI09:1,2011-06-06T17:00:00Z,29.1015,-89.9782,0.0,2.098,188.0,,'11111222,11111222,99999999' 
WAVCIS,ioos:station:WAVCIS:CSI09:1,2011-06-06T18:00:00Z,29.1015,-89.9782,0.0,2.006,202.0,,'11111222,11111222,99999999' 
WAVCIS,ioos:station:WAVCIS:CSI09:1,2011-06-06T19:00:00Z,29.1015,-89.9782,0.0,3.795,170.0,,'11111222,11111222,99999999' 
WAVCIS,ioos:station:WAVCIS:CSI09:1,2011-06-06T20:00:00Z,29.1015,-89.9782,0.0,2.941,205.0,,'11111222,11111222,99999999' 
WAVCIS,ioos:station:WAVCIS:CSI09:1,2011-06-06T21:00:00Z,29.1015,-89.9782,0.0,2.878,206.0,,'11111222,11111222,99999999' 
WAVCIS,ioos:station:WAVCIS:CSI09:1,2011-06-06T22:00:00Z,29.1015,-89.9782,0.0,2.75,216.0,,'11111222,11111222,99999999' 
WAVCIS,ioos:station:WAVCIS:CSI09:1,2011-06-06T23:00:00Z,29.1015,-89.9782,0.0,4.382,244.0,,'11111222,11111222,99999999' 
WAVCIS,ioos:station:WAVCIS:CSI09:1,2011-06-07T00:00:00Z,29.1015,-89.9782,0.0,4.737,263.0,,'11111222,11111222,99999999' 
WAVCIS,ioos:station:WAVCIS:CSI09:1,2011-06-07T01:00:00Z,29.1015,-89.9782,0.0,5.362,276.0,,'11111222,11111222,99999999' 
WAVCIS,ioos:station:WAVCIS:CSI09:1,2011-06-07T02:00:00Z,29.1015,-89.9782,0.0,3.575,288.0,,'11111222,11111222,99999999' 
WAVCIS,ioos:station:WAVCIS:CSI09:1,2011-06-07T03:00:00Z,29.1015,-89.9782,0.0,1.477,267.0,,'11111222,11111222,99999999' 
WAVCIS,ioos:station:WAVCIS:CSI09:1,2011-06-07T04:00:00Z,29.1015,-89.9782,0.0,0.197,58.0,,'11111222,11111222,99999999' 
WAVCIS,ioos:station:WAVCIS:CSI09:1,2011-06-07T05:00:00Z,29.1015,-89.9782,0.0,1.045,221.0,,'11111222,11111222,99999999' 
WAVCIS,ioos:station:WAVCIS:CSI09:1,2011-06-07T06:00:00Z,29.1015,-89.9782,0.0,2.684,179.0,,'11111222,11111222,99999999' 
WAVCIS,ioos:station:WAVCIS:CSI09:1,2011-06-07T07:00:00Z,29.1015,-89.9782,0.0,2.104,232.0,,'11111222,11111222,99999999' 
WAVCIS,ioos:station:WAVCIS:CSI09:1,2011-06-07T08:00:00Z,29.1015,-89.9782,0.0,2.827,232.0,,'11111222,11111222,99999999' 
WAVCIS,ioos:station:WAVCIS:CSI09:1,2011-06-07T09:00:00Z,29.1015,-89.9782,0.0,2.649,234.0,,'11111222,11111222,99999999' 
WAVCIS,ioos:station:WAVCIS:CSI09:1,2011-06-07T10:00:00Z,29.1015,-89.9782,0.0,1.835,232.0,,'11111222,11111222,99999999' 
WAVCIS,ioos:station:WAVCIS:CSI09:1,2011-06-07T11:00:00Z,29.1015,-89.9782,0.0,3.064,240.0,,'11111222,11111222,99999999' 
WAVCIS,ioos:station:WAVCIS:CSI09:1,2011-06-07T12:00:00Z,29.1015,-89.9782,0.0,2.366,240.0,,'11111222,11111222,99999999' 
WAVCIS,ioos:station:WAVCIS:CSI09:1,2011-06-07T13:00:00Z,29.1015,-89.9782,0.0,2.922,277.0,,'11111222,11111222,99999999' 
WAVCIS,ioos:station:WAVCIS:CSI09:1,2011-06-07T14:00:00Z,29.1015,-89.9782,0.0,4.113,273.0,,'11111222,11111222,99999999' 
WAVCIS,ioos:station:WAVCIS:CSI09:1,2011-06-07T15:00:00Z,29.1015,-89.9782,0.0,2.558,286.0,,'11111222,11111222,99999999' 
WAVCIS,ioos:station:WAVCIS:CSI09:1,2011-06-07T16:00:00Z,29.1015,-89.9782,0.0,2.601,246.0,,'11111222,11111222,99999999' 
WAVCIS,ioos:station:WAVCIS:CSI09:1,2011-06-07T17:00:00Z,29.1015,-89.9782,0.0,0.326,279.0,,'11111222,11111222,99999999' 
WAVCIS,ioos:station:WAVCIS:CSI09:1,2011-06-07T18:00:00Z,29.1015,-89.9782,0.0,1.365,256.0,,'11111222,11111222,99999999' 
WAVCIS,ioos:station:WAVCIS:CSI09:1,2011-06-07T19:00:00Z,29.1015,-89.9782,0.0,2.042,232.0,,'11111222,11111222,99999999' 
WAVCIS,ioos:station:WAVCIS:CSI09:1,2011-06-07T20:00:00Z,29.1015,-89.9782,0.0,3.134,243.0,,'11111222,11111222,99999999' 
WAVCIS,ioos:station:WAVCIS:CSI09:1,2011-06-07T21:00:00Z,29.1015,-89.9782,0.0,3.58,242.0,,'11111222,11111222,99999999' 
WAVCIS,ioos:station:WAVCIS:CSI09:1,2011-06-07T22:00:00Z,29.1015,-89.9782,0.0,4.01,231.0,,'11111222,11111222,99999999' 
WAVCIS,ioos:station:WAVCIS:CSI09:1,2011-06-07T23:00:00Z,29.1015,-89.9782,0.0,2.565,227.0,,'11111222,11111222,99999999' 
WAVCIS,ioos:station:WAVCIS:CSI09:1,2011-06-08T00:00:00Z,29.1015,-89.9782,0.0,2.149,202.0,,'11111222,11111222,99999999' 
WAVCIS,ioos:station:WAVCIS:CSI09:1,2011-06-08T01:00:00Z,29.1015,-89.9782,0.0,1.869,217.0,,'11111222,11111222,99999999' 
WAVCIS,ioos:station:WAVCIS:CSI09:1,2011-06-08T02:00:00Z,29.1015,-89.9782,0.0,1.881,228.0,,'11111222,11111222,99999999' 
WAVCIS,ioos:station:WAVCIS:CSI09:1,2011-06-08T03:00:00Z,29.1015,-89.9782,0.0,1.408,251.0,,'11111222,11111222,99999999' 
WAVCIS,ioos:station:WAVCIS:CSI09:1,2011-06-08T04:00:00Z,29.1015,-89.9782,0.0,2.008,315.0,,'11111222,11111222,99999999' 
WAVCIS,ioos:station:WAVCIS:CSI09:1,2011-06-08T05:00:00Z,29.1015,-89.9782,0.0,9.35,339.0,,'11111222,11111222,99999999' 
WAVCIS,ioos:station:WAVCIS:CSI09:1,2011-06-08T06:00:00Z,29.1015,-89.9782,0.0,11.08,24.0,,'11111222,11111222,99999999' 
WAVCIS,ioos:station:WAVCIS:CSI09:1,2011-06-08T07:00:00Z,29.1015,-89.9782,0.0,7.98,65.0,,'11111222,11111222,99999999' 
WAVCIS,ioos:station:WAVCIS:CSI09:1,2011-06-08T08:00:00Z,29.1015,-89.9782,0.0,7.82,93.0,,'11111222,11111222,99999999' 
WAVCIS,ioos:station:WAVCIS:CSI09:1,2011-06-08T09:00:00Z,29.1015,-89.9782,0.0,6.08,111.0,,'11111222,11111222,99999999' 
WAVCIS,ioos:station:WAVCIS:CSI09:1,2011-06-08T10:00:00Z,29.1015,-89.9782,0.0,5.175,130.0,,'11111222,11111222,99999999' 
WAVCIS,ioos:station:WAVCIS:CSI09:1,2011-06-08T11:00:00Z,29.1015,-89.9782,0.0,3.892,138.0,,'11111222,11111222,99999999' 
WAVCIS,ioos:station:WAVCIS:CSI09:1,2011-06-08T12:00:00Z,29.1015,-89.9782,0.0,1.606,131.0,,'11111222,11111222,99999999' 
WAVCIS,ioos:station:WAVCIS:CSI09:1,2011-06-08T13:00:00Z,29.1015,-89.9782,0.0,1.88,145.0,,'11111222,11111222,99999999' 
WAVCIS,ioos:station:WAVCIS:CSI09:1,2011-06-08T14:00:00Z,29.1015,-89.9782,0.0,2.019,143.0,,'11111222,11111222,99999999' 
WAVCIS,ioos:station:WAVCIS:CSI09:1,2011-06-08T15:00:00Z,29.1015,-89.9782,0.0,2.765,106.0,,'11111222,11111222,99999999' 
WAVCIS,ioos:station:WAVCIS:CSI09:1,2011-06-08T16:00:00Z,29.1015,-89.9782,0.0,3.942,90.0,,'11111222,11111222,99999999' 
WAVCIS,ioos:station:WAVCIS:CSI09:1,2011-06-08T17:00:00Z,29.1015,-89.9782,0.0,3.303,92.0,,'11111222,11111222,99999999' 
WAVCIS,ioos:station:WAVCIS:CSI09:1,2011-06-08T18:00:00Z,29.1015,-89.9782,0.0,3.25,106.0,,'11111222,11111222,99999999' 
WAVCIS,ioos:station:WAVCIS:CSI09:1,2011-06-08T19:00:00Z,29.1015,-89.9782,0.0,5.431,130.0,,'11111222,11111222,99999999' 
WAVCIS,ioos:station:WAVCIS:CSI09:1,2011-06-08T20:00:00Z,29.1015,-89.9782,0.0,5.461,130.0,,'11111222,11111222,99999999' 
WAVCIS,ioos:station:WAVCIS:CSI09:1,2011-06-08T21:00:00Z,29.1015,-89.9782,0.0,4.226,136.0,,'11111222,11111222,99999999' 
WAVCIS,ioos:station:WAVCIS:CSI09:1,2011-06-08T22:00:00Z,29.1015,-89.9782,0.0,4.451,132.0,,'11111222,11111222,99999999' 
WAVCIS,ioos:station:WAVCIS:CSI09:1,2011-06-08T23:00:00Z,29.1015,-89.9782,0.0,4.073,133.0,,'11111222,11111222,99999999' 
WAVCIS,ioos:station:WAVCIS:CSI09:1,2011-06-09T00:00:00Z,29.1015,-89.9782,0.0,3.831,125.0,,'11111222,11111222,99999999' 
WAVCIS,ioos:station:WAVCIS:CSI09:1,2011-06-09T01:00:00Z,29.1015,-89.9782,0.0,3.879,123.0,,'11111222,11111222,99999999' 
WAVCIS,ioos:station:WAVCIS:CSI09:1,2011-06-09T02:00:00Z,29.1015,-89.9782,0.0,5.416,128.0,,'11111222,11111222,99999999' 
WAVCIS,ioos:station:WAVCIS:CSI09:1,2011-06-09T03:00:00Z,29.1015,-89.9782,0.0,5.005,121.0,,'11111222,11111222,99999999' 
WAVCIS,ioos:station:WAVCIS:CSI09:1,2011-06-09T04:00:00Z,29.1015,-89.9782,0.0,5.349,99.0,,'11111222,11111222,99999999' 
WAVCIS,ioos:station:WAVCIS:CSI09:1,2011-06-09T05:00:00Z,29.1015,-89.9782,0.0,8.65,76.0,,'11111222,11111222,99999999' 
WAVCIS,ioos:station:WAVCIS:CSI09:1,2011-06-09T06:00:00Z,29.1015,-89.9782,0.0,5.633,119.0,,'11111222,11111222,99999999' 